| time (UTC) | temp F | wind direction | speed knots | gust knots | rain 1hr in | rain 24hr in | rain mn in | humidity % | barometer mb |
| 20260508060001 | 51 | 107 | 0.0 | 0.9 | 0.00 | 0.00 | 0.00 | 73 | 1008.1 |
| 20260508054557 | 52 | 74 | 0.0 | 1.7 | 0.00 | 0.00 | 0.00 | 69 | 1008.5 |
| 20260508053105 | 53 | 360 | 0.0 | 3.5 | 0.00 | 0.00 | 0.00 | 64 | 1009.5 |
| 20260508051555 | 53 | 273 | 0.0 | 1.7 | 0.00 | 0.00 | 0.00 | 66 | 1008.7 |
| 20260508050059 | 53 | 23 | 0.0 | 0.0 | 0.00 | 0.00 | 0.00 | 65 | 1008.4 |
| 20260508044551 | 54 | 360 | 0.0 | 0.0 | 0.00 | 0.00 | 0.00 | 63 | 1008.1 |
| 20260508043100 | 54 | 360 | 0.0 | 0.9 | 0.00 | 0.00 | 0.00 | 63 | 1008.3 |
| 20260508041547 | 54 | 37 | 0.0 | 4.3 | 0.00 | 0.00 | 0.00 | 61 | 1008.5 |
| 20260508040044 | 56 | 360 | 0.0 | 7.8 | 0.00 | 0.00 | 0.00 | 56 | 1009.2 |
| 20260508034540 | 57 | 360 | 0.9 | 4.3 | 0.00 | 0.00 | 0.00 | 50 | 1008.7 |
| 20260508033037 | 58 | 124 | 0.0 | 0.0 | 0.00 | 0.00 | 0.00 | 44 | 1008.2 |
| 20260508031535 | 59 | 162 | 0.0 | 2.6 | 0.00 | 0.00 | 0.00 | 43 | 1008.3 |
| 20260508030048 | 59 | 259 | 0.0 | 3.5 | 0.00 | 0.00 | 0.00 | 43 | 1008.0 |
| 20260508024536 | 59 | 253 | 0.0 | 3.5 | 0.00 | 0.00 | 0.00 | 43 | 1008.0 |
| 20260508023037 | 60 | 160 | 0.0 | 3.5 | 0.00 | 0.00 | 0.00 | 43 | 1008.1 |
| 20260508021537 | 59 | 360 | 0.0 | 2.6 | 0.00 | 0.00 | 0.00 | 47 | 1008.0 |
| 20260508020032 | 59 | 360 | 0.0 | 1.7 | 0.00 | 0.00 | 0.00 | 47 | 1008.0 |
| 20260508014531 | 60 | 90 | 0.0 | 2.6 | 0.00 | 0.00 | 0.00 | 47 | 1007.6 |
| 20260508013030 | 61 | 94 | 0.0 | 2.6 | 0.00 | 0.00 | 0.00 | 43 | 1007.7 |
| 20260508011529 | 63 | 347 | 0.0 | 3.5 | 0.00 | 0.00 | 0.00 | 37 | 1007.9 |
| 20260508010028 | 64 | 351 | 0.0 | 0.9 | 0.00 | 0.00 | 0.00 | 31 | 1007.4 |
| 20260508004528 | 65 | 172 | 0.0 | 0.0 | 0.00 | 0.00 | 0.00 | 29 | 1007.0 |
| 20260508003027 | 66 | 360 | 0.0 | 1.7 | 0.00 | 0.00 | 0.00 | 28 | 1007.0 |
| 20260508001525 | 67 | 360 | 0.0 | 2.6 | 0.00 | 0.00 | 0.00 | 27 | 1007.0 |
| 20260508000024 | 67 | 187 | 0.0 | 0.0 | 0.00 | 0.00 | 0.00 | 27 | 1007.3 |
| 20260507234529 | 69 | 219 | 0.0 | 1.7 | 0.00 | 0.00 | 0.00 | 26 | 1007.3 |
| 20260507233025 | 70 | 246 | 0.0 | 2.6 | 0.00 | 0.00 | 0.00 | 23 | 1007.3 |
| 20260507231524 | 68 | 197 | 0.0 | 1.7 | 0.00 | 0.00 | 0.00 | 26 | 1007.6 |
| 20260507230022 | 70 | 215 | 0.0 | 2.6 | 0.00 | 0.00 | 0.00 | 24 | 1007.8 |
| 20260507224518 | 71 | 232 | 0.0 | 3.5 | 0.00 | 0.00 | 0.00 | 24 | 1007.9 |
| 20260507223016 | 71 | 237 | 0.0 | 2.6 | 0.00 | 0.00 | 0.00 | 24 | 1008.1 |
| 20260507221513 | 71 | 296 | 0.0 | 3.5 | 0.00 | 0.00 | 0.00 | 26 | 1008.3 |
| 20260507220010 | 71 | 187 | 0.0 | 0.0 | 0.00 | 0.00 | 0.00 | 23 | 1008.7 |
| 20260507214507 | 69 | 360 | 0.0 | 3.5 | 0.00 | 0.00 | 0.00 | 27 | 1009.3 |
| 20260507213004 | 70 | 265 | 0.0 | 2.6 | 0.00 | 0.00 | 0.00 | 26 | 1009.7 |
| 20260507211502 | 69 | 279 | 0.0 | 7.0 | 0.00 | 0.00 | 0.00 | 26 | 1010.2 |
| 20260507210059 | 69 | 360 | 0.0 | 5.2 | 0.00 | 0.00 | 0.00 | 27 | 1010.6 |
| 20260507204601 | 68 | 360 | 0.0 | 7.8 | 0.00 | 0.09 | 0.00 | 26 | 1010.9 |
| 20260507203055 | 68 | 360 | 1.7 | 8.7 | 0.00 | 0.09 | 0.00 | 26 | 1011.2 |
| 20260507201600 | 66 | 218 | 0.0 | 0.9 | 0.00 | 0.09 | 0.00 | 29 | 1011.4 |
| 20260507200053 | 63 | 360 | 0.0 | 0.9 | 0.00 | 0.09 | 0.00 | 30 | 1011.7 |
| 20260507194550 | 63 | 360 | 0.0 | 0.0 | 0.00 | 0.27 | 0.00 | 33 | 1012.1 |
| 20260507193045 | 62 | 360 | 0.0 | 0.0 | 0.00 | 0.27 | 0.00 | 31 | 1012.2 |
| 20260507191554 | 63 | 68 | 0.0 | 0.0 | 0.00 | 0.27 | 0.00 | 30 | 1012.5 |
| 20260507190040 | 66 | 288 | 0.0 | 1.7 | 0.00 | 0.27 | 0.00 | 27 | 1012.8 |
| 20260507184538 | 63 | 360 | 0.0 | 0.0 | 0.00 | 0.38 | 0.00 | 33 | 1012.9 |
| 20260507183042 | 62 | 360 | 0.0 | 1.7 | 0.00 | 0.38 | 0.00 | 35 | 1013.0 |
| 20260507181531 | 61 | 252 | 1.7 | 7.0 | 0.00 | 0.38 | 0.00 | 35 | 1012.9 |
| 20260507180027 | 60 | 239 | 0.9 | 5.2 | 0.00 | 0.38 | 0.00 | 35 | 1012.9 |
| 20260507170003 | 60 | 360 | 0.0 | 5.2 | 0.00 | 0.42 | 0.00 | 34 | 1014.7 |
| 20260507164504 | 59 | 360 | 0.9 | 7.8 | 0.00 | 0.45 | 0.00 | 37 | 1014.8 |
| 20260507163101 | 58 | 245 | 0.0 | 4.3 | 0.00 | 0.45 | 0.00 | 36 | 1014.7 |
| 20260507161607 | 57 | 360 | 0.9 | 5.2 | 0.00 | 0.45 | 0.00 | 37 | 1014.9 |
| 20260507160056 | 57 | 360 | 0.0 | 4.3 | 0.00 | 0.45 | 0.00 | 39 | 1015.4 |
| 20260507154555 | 58 | 360 | 0.0 | 4.3 | 0.00 | 0.46 | 0.00 | 37 | 1015.4 |
| 20260507153054 | 59 | 360 | 0.0 | 3.5 | 0.00 | 0.46 | 0.00 | 39 | 1015.4 |
| 20260507151549 | 57 | 273 | 0.0 | 4.3 | 0.00 | 0.46 | 0.00 | 40 | 1015.7 |
| 20260507150049 | 56 | 360 | 0.9 | 1.7 | 0.00 | 0.46 | 0.00 | 39 | 1016.0 |
| 20260507144545 | 56 | 360 | 0.9 | 5.2 | 0.00 | 0.47 | 0.00 | 39 | 1015.7 |
| 20260507143100 | 56 | 360 | 0.9 | 7.8 | 0.00 | 0.47 | 0.00 | 39 | 1015.7 |
| 20260507141555 | 54 | 360 | 0.0 | 4.3 | 0.00 | 0.47 | 0.00 | 40 | 1015.8 |
| 20260507140037 | 53 | 360 | 0.9 | 10.4 | 0.00 | 0.47 | 0.00 | 40 | 1016.0 |
| 20260507134533 | 52 | 360 | 0.9 | 5.2 | 0.00 | 0.47 | 0.00 | 41 | 1016.1 |
| 20260507133030 | 51 | 360 | 0.9 | 12.2 | 0.00 | 0.47 | 0.00 | 42 | 1016.2 |
| 20260507131525 | 50 | 360 | 3.5 | 9.6 | 0.00 | 0.47 | 0.00 | 42 | 1016.1 |
| 20260507130036 | 49 | 360 | 0.9 | 7.8 | 0.00 | 0.47 | 0.00 | 42 | 1016.1 |
| 20260507124517 | 49 | 360 | 0.9 | 9.6 | 0.00 | 0.47 | 0.00 | 42 | 1016.1 |
| 20260507123013 | 48 | 360 | 0.9 | 9.6 | 0.00 | 0.47 | 0.00 | 43 | 1016.0 |
| 20260507121509 | 48 | 360 | 0.9 | 5.2 | 0.00 | 0.47 | 0.00 | 44 | 1016.2 |
| 20260507120007 | 48 | 360 | 0.9 | 7.8 | 0.00 | 0.47 | 0.00 | 44 | 1015.9 |
| 20260507114623 | 48 | 234 | 0.9 | 10.4 | 0.00 | 0.47 | 0.00 | 44 | 1016.0 |
| 20260507113100 | 48 | 360 | 1.7 | 7.8 | 0.00 | 0.47 | 0.00 | 43 | 1016.1 |
| 20260507111558 | 47 | 360 | 0.9 | 7.0 | 0.00 | 0.47 | 0.00 | 45 | 1016.1 |
| 20260507110056 | 46 | 360 | 1.7 | 7.0 | 0.00 | 0.47 | 0.00 | 47 | 1016.2 |
| 20260507104559 | 46 | 360 | 0.9 | 5.2 | 0.00 | 0.47 | 0.00 | 47 | 1016.4 |
| 20260507103053 | 45 | 360 | 1.7 | 5.2 | 0.00 | 0.47 | 0.00 | 47 | 1016.4 |
| 20260507101551 | 46 | 360 | 0.9 | 8.7 | 0.00 | 0.47 | 0.00 | 44 | 1016.5 |
| 20260507100057 | 45 | 360 | 1.7 | 7.0 | 0.00 | 0.47 | 0.00 | 47 | 1016.8 |
| 20260507094549 | 46 | 360 | 1.7 | 7.8 | 0.00 | 0.47 | 0.00 | 44 | 1017.0 |
| 20260507093045 | 46 | 360 | 1.7 | 8.7 | 0.00 | 0.47 | 0.00 | 44 | 1017.2 |
| 20260507091543 | 46 | 360 | 1.7 | 7.8 | 0.00 | 0.47 | 0.00 | 44 | 1017.3 |
| 20260507084545 | 43 | 360 | 0.0 | 1.7 | 0.00 | 0.47 | 0.00 | 48 | 1017.5 |
| 20260507083035 | 43 | 265 | 0.9 | 3.5 | 0.00 | 0.47 | 0.00 | 47 | 1017.4 |
| 20260507081533 | 42 | 360 | 0.0 | 1.7 | 0.00 | 0.47 | 0.00 | 48 | 1017.6 |
| 20260507080031 | 43 | 263 | 0.0 | 0.9 | 0.00 | 0.47 | 0.00 | 49 | 1017.9 |
| 20260507074528 | 42 | 230 | 0.0 | 3.5 | 0.00 | 0.47 | 0.00 | 50 | 1018.0 |
| 20260507073025 | 42 | 223 | 0.0 | 1.7 | 0.00 | 0.47 | 0.00 | 55 | 1018.2 |
| 20260507071528 | 40 | 232 | 0.0 | 0.9 | 0.00 | 0.47 | 0.00 | 65 | 1018.2 |
| 20260507070017 | 37 | 262 | 0.0 | 0.9 | 0.00 | 0.47 | 0.00 | 75 | 1018.5 |
| 20260507064517 | 35 | 244 | 0.0 | 1.7 | 0.00 | 0.47 | 0.00 | 83 | 1018.7 |
| 20260507063009 | 33 | 213 | 0.0 | 0.0 | 0.00 | 0.47 | 0.00 | 88 | 1018.8 |
| 20260507061505 | 31 | 176 | 0.0 | 0.0 | 0.00 | 0.47 | 0.00 | 88 | 1018.8 |